Location: Bednik
(45.3500°N, 16.3833°E)
Time: 04:51:13
(UTC+00:00)

Cosmos 1354 Rocket - Pass Details

Date: 08 August 2020
Orbit: 765 x 782 km, 74.0° (Epoch: 23 September)

Event Time Altitude Azimuth Distance (km) Brightness Sun altitude
Exits shadow 23:07:08 60° 57° (ENE) 893 4.3 -28.8°
Drops below altitude 10° 23:11:40 10° 25° (NNE) 2,348 7.3 -28.8°
Sets 23:14:04 0° 24° (NNE) 3,279 8.3 -28.8°
